Date,TemperatureHighF,TemperatureAvgF,TemperatureLowF,DewpointHighF,DewpointAvgF,DewpointLowF,HumidityHigh,HumidityAvg,HumidityLow,PressureMaxIn,PressureMinIn,WindSpeedMaxMPH,WindSpeedAvgMPH,GustSpeedMaxMPH,PrecipitationSumIn
2013-1-1,54.0,48.4,43.2,51.7,44.5,37.3,92,86,79,29.68,29.43,14,4,14,0.11
2013-1-2,43.2,39.5,37.0,37.4,33.3,30.4,82,78,72,29.77,29.66,11,3,11,0.00
2013-1-3,52.2,42.2,30.0,33.4,30.6,25.4,84,65,42,29.89,29.76,14,3,14,0.01
2013-1-4,50.9,45.3,41.2,37.9,34.3,31.9,83,66,49,29.97,29.81,11,1,11,0.06
2013-1-5,47.7,44.5,42.1,42.8,39.6,35.2,86,83,68,29.85,29.71,5,0,5,0.09
2013-1-6,57.9,45.4,36.7,42.6,37.1,30.9,91,75,43,29.81,29.73,12,2,12,0.01
2013-1-7,55.9,43.7,30.7,37.8,33.5,26.5,87,69,45,29.80,29.57,8,1,8,0.00
2013-1-8,61.5,53.5,45.7,58.1,49.0,37.4,91,85,70,29.60,29.41,11,2,11,0.50
2013-1-9,64.0,62.1,59.9,60.8,59.0,57.0,91,90,88,29.56,29.35,11,2,18,0.48
2013-1-10,69.4,61.9,48.4,60.4,53.4,42.2,91,75,45,29.51,29.38,22,3,22,0.02
2013-1-11,72.0,57.5,42.4,56.2,47.6,38.6,87,71,44,29.50,29.33,11,2,11,0.00
2013-1-12,75.2,69.0,49.5,69.2,63.3,45.3,93,82,71,29.37,29.16,31,7,31,0.60
2013-1-13,49.6,42.5,37.9,45.9,36.3,31.5,89,79,65,29.64,29.27,17,5,17,0.60
2013-1-14,43.3,37.5,33.6,33.3,29.3,24.8,80,72,62,29.73,29.59,21,6,21,0.02
2013-1-15,34.2,32.9,31.5,30.1,27.7,24.9,86,81,72,29.64,29.51,12,2,12,0.22
2013-1-16,48.7,39.2,33.8,30.9,26.4,15.8,85,63,27,29.70,29.57,13,2,13,0.02
2013-1-17,60.6,43.1,27.3,36.2,29.2,19.8,78,60,36,29.93,29.69,14,2,14,0.01
2013-1-18,61.7,45.5,32.4,39.4,32.1,25.7,81,62,27,30.00,29.81,8,1,8,0.00
2013-1-19,59.7,46.1,31.6,43.6,36.2,25.9,85,69,51,29.81,29.65,10,1,10,0.00
2013-1-20,68.0,50.4,37.4,51.8,42.4,33.2,90,76,50,29.73,29.57,10,1,10,0.00
2013-1-21,71.1,53.6,40.8,51.9,43.8,36.8,87,71,46,29.69,29.59,14,2,14,0.00
2013-1-22,67.3,51.2,37.8,47.7,39.7,30.7,78,66,47,29.79,29.68,9,2,9,0.00
2013-1-23,73.9,61.9,43.5,54.9,49.6,38.7,87,66,41,29.81,29.65,15,4,15,0.00
2013-1-24,71.4,62.0,54.5,59.8,56.1,49.3,89,81,65,29.73,29.58,14,3,14,0.00
2013-1-25,77.9,65.8,55.2,58.6,55.7,48.7,83,71,48,29.65,29.51,16,5,16,0.00
2013-1-26,66.4,57.2,54.0,57.7,51.8,48.3,87,82,70,29.65,29.57,8,2,8,0.00
2013-1-27,76.6,64.0,51.3,60.6,55.8,48.1,90,76,55,29.62,29.50,20,5,20,0.00
2013-1-28,79.7,70.9,66.4,62.2,60.3,58.0,83,70,50,29.58,29.43,22,8,22,0.00
2013-1-29,75.6,69.7,58.1,64.6,61.8,51.5,84,76,60,29.43,29.03,31,10,31,0.26
2013-1-30,58.3,50.5,38.5,53.5,34.2,23.8,84,55,32,29.64,29.18,20,5,20,0.02
2013-1-31,65.1,47.9,32.5,34.4,29.3,25.2,76,53,23,29.75,29.63,19,2,19,0.00
2013-2-1,67.1,52.6,41.0,44.0,38.0,32.6,75,59,39,29.83,29.67,10,2,10,0.00
2013-2-2,71.8,57.9,43.7,53.1,45.2,36.8,80,64,48,29.74,29.62,12,3,12,0.00
2013-2-3,71.4,55.1,41.4,40.4,35.5,24.4,75,52,20,29.77,29.53,10,2,10,0.00
2013-2-4,61.5,55.2,48.4,56.5,48.3,37.7,88,78,65,29.53,29.31,9,2,9,0.01
2013-2-5,73.4,63.8,59.0,61.8,57.2,54.4,93,80,58,29.49,29.36,8,1,8,0.00
2013-2-6,63.0,60.8,59.4,59.5,57.0,54.9,90,87,81,29.53,29.39,11,2,11,0.19
2013-2-7,66.7,60.0,54.0,58.6,55.7,51.4,93,86,74,29.44,29.35,10,1,10,0.00
2013-2-8,63.0,56.5,46.9,55.3,48.8,43.0,92,76,61,29.65,29.43,13,3,13,0.02
2013-2-9,62.4,52.7,43.5,58.0,47.8,39.6,90,84,70,29.63,29.33,16,4,16,0.00
2013-2-10,68.2,63.5,56.1,64.5,54.1,43.6,91,73,43,29.47,29.23,18,3,18,0.61
2013-2-11,57.2,53.0,49.8,49.3,46.8,43.0,87,79,60,29.61,29.46,10,2,10,0.21
2013-2-12,55.8,52.2,48.7,51.3,48.1,44.1,91,86,78,29.48,29.27,9,2,9,0.31
2013-2-13,53.6,46.7,36.9,44.0,38.3,31.3,86,73,57,29.58,29.39,14,3,14,0.04
2013-2-14,64.9,47.7,32.4,42.4,35.1,27.8,86,65,30,29.61,29.50,8,1,8,0.00
2013-2-15,60.4,47.1,37.0,40.9,35.7,23.6,88,66,45,29.79,29.55,17,4,17,0.02
2013-2-16,56.5,44.3,32.4,32.7,26.7,22.1,76,52,30,29.86,29.69,14,3,14,0.01
2013-2-17,70.9,52.7,34.2,45.0,37.0,27.4,78,58,28,29.69,29.49,22,6,22,0.00
2013-2-18,71.2,60.5,52.9,62.7,52.2,40.9,87,74,62,29.51,29.28,26,7,26,0.41
2013-2-19,63.3,53.3,42.6,41.2,33.6,23.4,75,50,22,29.74,29.51,11,3,11,0.00
2013-2-20,54.9,50.4,44.6,38.3,35.4,29.7,75,57,40,29.64,29.32,13,4,13,0.05
2013-2-21,71.8,58.6,49.5,64.3,48.6,36.9,92,71,45,29.34,29.09,15,3,15,0.30
2013-2-22,57.2,50.6,45.3,46.5,44.2,37.8,92,79,65,29.51,29.32,14,4,14,0.01
2013-2-23,66.6,51.2,38.3,45.2,38.7,32.3,81,64,40,29.49,29.37,9,3,9,0.00
2013-2-24,70.2,55.3,38.7,47.3,42.2,35.1,87,64,40,29.43,29.16,10,2,10,0.00
2013-2-25,71.8,59.2,45.1,61.6,43.7,27.6,86,60,24,29.17,28.89,24,6,24,0.02
2013-2-26,60.4,49.9,42.8,38.6,35.2,32.3,76,58,41,29.38,29.09,24,6,24,0.00
2013-2-27,63.3,49.9,37.6,42.5,33.5,25.1,86,57,27,29.60,29.35,17,3,17,0.00
2013-2-28,57.4,46.3,36.9,33.4,29.0,24.1,73,53,29,29.72,29.58,13,4,13,0.00
2013-3-1,60.1,46.7,37.2,32.9,29.2,23.2,70,53,25,29.72,29.59,16,4,16,0.00
2013-3-2,51.1,41.5,34.0,31.2,24.1,18.2,69,52,28,29.81,29.67,17,4,17,0.00
2013-3-3,68.9,49.6,29.1,40.9,30.6,22.8,77,52,25,29.71,29.43,21,5,21,0.00
2013-3-4,79.0,64.1,48.7,57.6,51.8,40.7,85,66,44,29.44,29.17,37,10,37,0.00
2013-3-5,64.8,59.6,52.3,57.9,47.8,30.8,81,66,33,29.63,29.22,24,8,24,0.14
2013-4-15,91.4,83.7,73.8,69.9,66.7,64.9,78,58,44,29.92,29.92,18,7,18,0.00
2013-4-16,90.1,78.8,73.0,71.1,68.4,66.3,84,71,49,29.92,29.92,18,6,18,0.00
2013-4-20,74.7,67.0,52.3,43.1,39.2,32.0,69,38,23,29.92,29.92,17,4,17,0.00
2013-4-21,75.6,60.7,43.3,50.8,45.4,39.0,87,60,33,29.92,29.92,16,2,16,0.00
2013-4-22,82.4,66.2,48.0,58.3,51.1,43.6,85,61,38,29.92,29.92,14,2,14,0.00
2013-4-23,84.9,68.4,58.5,64.8,58.7,52.8,89,73,50,29.92,29.92,15,4,15,0.00
2013-4-24,66.2,60.7,50.4,46.3,44.3,41.8,76,55,45,29.92,29.92,15,5,15,0.45
2013-4-25,68.9,56.9,52.3,47.7,45.6,42.1,80,67,39,29.92,29.92,16,4,16,0.05
2013-4-26,83.3,72.5,61.5,65.5,59.5,49.7,71,64,55,29.92,29.92,19,6,19,0.00
2013-4-27,83.3,74.3,69.4,68.6,66.8,64.7,88,78,57,29.92,29.92,12,2,12,0.47
2013-4-28,73.6,67.3,64.8,66.7,63.7,61.5,90,88,76,29.92,29.92,4,0,4,0.00
2013-4-30,83.5,75.8,66.7,67.6,65.0,62.8,88,70,55,29.92,29.92,12,2,12,0.04
2013-5-1,85.8,72.9,65.7,68.4,64.6,62.3,93,76,52,29.92,29.92,9,2,9,0.01
2013-5-2,74.5,63.5,46.6,63.9,57.2,42.4,87,80,68,29.92,29.92,14,4,14,0.32
2013-5-3,63.9,49.6,43.0,42.8,37.6,26.5,86,67,25,32.19,29.92,21,4,21,0.97
2013-5-4,75.0,55.2,41.4,42.8,37.5,31.4,83,57,22,29.92,29.92,17,3,17,0.05
2013-5-5,66.9,54.4,45.7,42.9,39.9,37.9,78,59,38,29.92,29.92,16,4,16,0.11
2013-5-15,70.5,69.0,67.8,65.1,64.3,63.3,87,85,83,29.92,29.92,11,3,11,1.92
2013-5-16,87.1,75.9,64.9,70.1,66.4,61.6,91,73,54,29.92,29.92,19,6,19,0.07
2013-5-17,74.1,73.1,72.5,68.0,67.5,67.3,84,83,80,29.92,29.92,10,4,10,0.00
2013-5-18,94.6,87.4,77.2,74.1,70.8,67.9,74,58,48,29.92,29.92,17,7,17,0.00
2013-5-19,93.9,81.5,71.6,71.3,68.4,65.3,85,66,46,29.92,29.92,24,8,24,0.00
2013-5-20,90.9,83.1,74.5,74.1,70.8,68.3,82,67,55,29.92,29.92,19,7,19,0.00
2013-5-21,89.1,77.1,67.6,71.8,67.6,59.8,90,74,53,29.92,29.92,17,5,17,0.35
2013-5-22,86.7,80.7,0.0,70.5,68.5,64.9,89,65,54,29.92,29.92,5,1,5,0.04
2013-5-27,77.4,76.6,75.6,67.9,67.5,67.1,76,73,71,29.92,29.92,11,6,11,0.02
2013-5-28,90.1,80.9,74.1,67.8,65.5,63.6,80,61,44,29.92,29.92,17,6,17,0.00
2013-5-29,74.8,74.6,74.3,67.0,66.8,66.6,77,77,76,29.92,29.92,7,4,8,0.00
2013-5-30,86.7,78.8,74.8,72.2,71.1,70.1,86,78,61,29.92,29.92,19,7,19,0.00
2013-5-31,96.3,84.1,77.0,76.2,72.9,71.3,84,70,49,29.92,29.92,22,7,22,0.00
2013-6-1,96.8,84.4,78.1,73.9,72.6,71.2,83,69,47,29.92,29.92,17,6,17,0.00
2013-6-2,83.7,77.8,71.8,72.6,66.8,63.0,82,69,55,29.92,29.92,12,2,13,1.16
2013-6-3,72.7,68.5,64.9,65.5,63.0,61.0,88,83,75,29.92,29.92,2,0,2,0.00
2013-6-4,71.8,71.4,71.2,64.4,64.2,63.9,79,78,77,29.92,29.92,0,0,0,0.00
2013-6-6,71.1,69.7,68.7,67.8,66.3,65.1,90,89,87,29.92,29.92,9,2,9,0.97
2013-6-7,85.1,74.5,66.9,67.2,63.9,59.4,93,72,44,29.92,29.92,9,1,9,0.01
2013-6-8,90.3,78.0,65.5,70.7,65.0,61.7,89,67,42,29.92,29.92,11,2,11,0.00
2013-6-9,92.3,78.4,70.3,74.6,69.4,65.8,88,75,51,29.92,29.92,24,2,24,0.00
2013-6-10,95.4,81.6,70.0,73.1,69.8,65.6,90,70,46,29.92,29.92,8,2,8,0.00
2013-6-11,97.2,84.4,73.9,76.1,73.4,70.2,89,71,47,29.92,29.92,11,2,11,0.00
2013-6-12,97.2,85.0,74.5,76.2,72.6,69.4,89,69,45,29.92,29.92,10,3,10,0.00
2013-6-13,98.8,86.0,75.0,75.3,72.8,70.7,89,67,42,29.92,29.92,8,2,8,0.00
2013-6-14,98.8,87.3,75.6,78.1,73.7,70.9,86,66,44,29.92,29.92,6,1,6,0.00
2013-6-15,98.1,86.3,76.3,76.6,72.8,69.5,85,66,46,29.92,29.92,14,2,14,0.02
2013-6-16,98.8,85.8,77.4,75.5,72.2,68.6,86,66,42,29.92,29.92,11,3,11,0.00
2013-6-17,93.6,84.3,77.4,74.9,72.8,67.7,86,69,49,29.92,29.92,19,3,19,0.01
2013-6-18,91.4,81.6,73.9,75.8,72.4,68.3,90,75,52,29.92,29.92,11,3,11,0.92
2013-6-19,89.8,79.7,71.6,77.1,72.2,68.2,93,79,59,29.92,29.92,12,1,12,0.00
2013-6-20,96.3,85.1,75.0,76.5,72.7,70.0,89,69,46,29.92,29.92,14,3,14,0.00
2013-6-21,83.5,77.5,74.7,75.5,72.4,70.7,89,84,72,29.92,29.92,8,0,8,0.00
2013-6-22,97.7,86.9,76.5,75.3,72.3,70.0,84,64,43,29.92,29.92,11,3,11,0.00
2013-6-23,98.2,86.0,76.1,75.7,72.3,70.3,84,65,43,29.92,29.92,11,3,11,0.00
2013-6-24,96.4,86.3,77.9,77.9,73.2,71.1,83,66,47,29.92,29.92,13,4,13,0.01
2013-6-25,85.1,79.9,76.8,73.8,72.8,71.9,86,79,69,29.92,29.92,11,3,11,0.00
2013-6-26,100.4,87.6,77.4,75.8,72.8,70.9,86,64,41,29.92,29.92,15,5,15,0.00
2013-6-27,101.3,87.6,76.1,74.7,72.1,68.8,86,62,39,29.92,29.92,11,3,11,0.00
2013-6-28,103.6,88.2,76.5,74.4,71.7,70.0,83,61,38,29.92,29.92,11,3,11,0.00
2013-6-29,101.7,90.0,75.6,73.6,68.8,61.6,81,53,31,29.92,29.92,14,3,14,0.01
2013-6-30,96.1,83.3,68.9,64.8,60.0,55.6,76,48,27,29.92,29.92,13,2,13,0.02
2013-7-1,92.3,79.5,67.5,64.5,59.9,55.8,76,53,32,29.92,29.92,11,2,11,0.00
2013-7-2,95.5,80.3,67.1,66.1,61.6,56.5,79,55,29,29.92,29.92,11,1,11,0.00
2013-7-3,93.7,80.5,67.6,67.1,62.7,58.2,83,57,35,29.92,29.92,8,1,8,0.00
2013-7-4,95.9,81.6,67.8,68.2,63.5,60.1,83,56,34,29.92,29.92,7,1,7,0.00
2013-7-5,97.7,83.1,67.5,69.1,63.3,58.5,83,54,33,29.92,29.92,8,2,8,0.00
2013-7-6,98.2,84.7,70.9,73.8,66.8,61.3,88,58,34,29.92,29.92,9,2,9,0.00
2013-7-7,101.5,84.0,72.9,75.2,71.6,66.6,89,68,41,29.92,29.92,21,3,21,0.00
2013-7-8,96.3,84.0,75.2,77.5,72.5,69.7,88,70,46,29.92,29.92,18,3,18,0.02
2013-7-9,102.4,87.3,72.7,77.0,71.6,65.8,91,63,34,29.92,29.92,15,3,15,0.00
2013-7-10,102.7,89.1,76.5,75.7,72.1,67.9,87,60,37,29.92,29.92,13,3,13,0.00
2013-7-11,102.6,85.1,78.6,74.6,72.1,70.3,80,66,39,29.92,29.92,10,2,10,0.00
2013-7-12,100.8,86.6,73.6,74.9,71.6,69.8,89,64,39,29.92,29.92,8,2,8,0.00
2013-7-13,99.5,86.3,75.9,71.6,63.1,43.0,74,49,16,29.92,29.92,10,2,10,0.00
2013-7-14,87.1,80.0,74.1,72.3,68.3,62.7,88,68,56,29.92,29.92,8,1,8,0.04
2013-7-15,89.6,76.8,71.6,73.7,70.6,67.2,95,82,56,29.92,29.92,18,1,18,1.23
2013-7-16,92.8,80.1,72.0,76.1,72.2,69.1,95,78,48,29.92,29.92,12,1,12,0.44
2013-7-17,91.2,81.2,73.9,77.0,73.7,71.7,95,80,55,29.92,29.92,10,1,10,1.25
2013-7-18,82.6,79.8,78.3,75.1,74.1,72.9,86,83,77,29.92,29.92,1,0,2,0.00
2013-7-19,86.5,79.1,73.6,75.1,72.1,68.0,92,80,56,29.92,29.92,5,1,5,0.37
2013-7-20,95.9,79.9,72.0,75.7,72.0,68.4,92,79,44,29.92,29.92,12,1,12,0.58
2013-7-21,95.5,82.1,73.2,77.0,73.4,69.8,91,76,49,29.92,29.92,15,3,15,0.01
2013-7-22,97.9,85.2,76.6,77.4,74.7,72.6,90,73,48,29.92,29.92,13,4,13,0.00
2013-7-23,98.1,86.6,77.5,76.4,73.3,69.7,88,67,44,29.92,29.92,15,4,15,0.00
2013-7-24,94.1,84.3,77.2,78.8,74.6,72.2,86,74,53,29.92,29.92,14,3,14,0.00
2013-7-25,95.9,85.8,74.8,76.0,73.1,70.4,94,68,45,29.92,29.92,8,1,8,0.00
2013-7-26,93.6,85.7,77.5,76.6,73.2,70.2,88,68,49,29.92,29.92,14,3,14,0.00
2013-7-27,86.4,79.9,73.8,75.6,72.1,68.2,93,78,60,29.92,29.92,12,3,12,0.14
2013-7-28,96.3,83.2,68.5,77.0,71.6,65.7,94,70,46,29.92,29.92,11,2,11,0.00
2013-7-29,84.9,80.0,76.6,76.8,74.5,72.9,90,83,76,29.92,29.92,12,2,12,0.00
2013-7-30,99.7,87.7,77.7,76.2,71.8,67.8,85,62,36,29.92,29.92,15,5,15,0.00
2013-7-31,99.7,88.1,78.1,75.6,72.7,69.9,85,63,41,29.92,29.92,11,4,11,0.00
2013-8-1,101.5,87.9,78.6,76.1,73.2,70.0,84,64,41,29.92,29.92,6,2,6,0.00
2013-8-2,103.5,89.9,77.0,75.8,72.7,70.0,86,60,36,29.92,29.92,9,2,9,0.00
2013-8-3,101.3,89.4,77.0,76.3,71.9,67.9,86,59,36,29.92,29.92,11,3,11,0.00
2013-8-4,101.3,89.5,77.4,77.4,73.4,69.4,87,62,40,29.92,29.92,11,2,11,0.00
2013-8-5,102.7,90.1,77.7,76.0,72.4,69.0,86,59,35,29.92,29.92,14,4,14,0.00
2013-8-6,104.2,90.5,77.7,75.4,73.2,70.6,85,60,36,29.92,29.92,14,4,14,0.00
2013-8-7,104.5,90.8,78.6,75.9,73.2,68.4,87,60,34,29.92,29.92,13,5,14,0.00
2013-8-8,104.0,91.2,77.7,76.1,72.1,64.3,85,57,31,29.92,29.92,14,4,14,0.00
2013-8-9,103.3,89.9,76.3,75.7,71.8,65.9,85,58,32,29.92,29.92,10,2,10,0.00
2013-8-10,104.0,89.0,79.7,77.9,75.1,71.7,85,66,38,29.92,29.92,17,2,17,0.11
2013-8-11,100.0,84.9,74.3,82.8,74.0,69.6,93,72,39,29.92,29.92,13,2,13,0.47
2013-8-12,99.9,87.4,75.6,76.7,73.4,70.7,92,66,41,29.92,29.92,13,3,13,0.00
2013-8-13,102.7,87.9,77.9,76.8,73.4,66.7,87,65,34,29.92,29.92,13,3,13,0.05
2013-8-14,92.7,81.4,77.2,77.0,75.3,73.7,92,82,56,29.92,29.92,17,1,17,0.07
2013-8-15,92.1,80.7,70.2,75.4,65.0,58.8,92,61,37,29.92,29.92,11,2,11,0.01
2013-8-16,76.6,71.4,68.5,61.2,60.5,59.0,77,69,55,29.92,29.92,4,1,4,0.00
2013-8-17,90.9,78.6,66.7,65.5,60.5,56.8,84,56,33,29.92,29.92,14,4,14,0.02
2013-8-18,95.5,81.1,67.3,70.2,65.0,61.0,90,61,34,29.92,29.92,10,2,10,0.00
2013-8-19,97.9,83.7,72.7,70.5,64.7,61.0,79,56,33,29.92,29.92,10,1,10,0.00
2013-8-20,97.9,85.6,72.1,72.4,65.8,60.3,84,55,29,29.92,29.92,10,2,10,0.00
2013-8-21,99.3,86.2,73.2,74.5,69.9,66.3,87,61,35,29.92,29.92,7,1,7,0.00
2013-8-22,102.4,87.4,75.2,75.8,71.1,68.1,86,60,36,29.92,29.92,10,2,10,0.00
2013-8-23,101.1,88.3,75.7,75.2,70.5,65.6,85,58,33,29.92,29.92,12,2,12,0.00
2013-8-24,85.8,81.0,77.2,73.8,71.8,70.4,84,74,64,29.92,29.92,2,0,2,0.00
2013-8-25,98.1,86.5,74.7,73.4,70.0,67.2,86,60,39,29.92,29.92,12,3,12,0.00
2013-8-26,94.8,81.5,74.5,74.5,71.8,68.9,91,74,46,29.92,29.92,11,2,11,0.00
2013-8-27,97.9,83.5,72.5,74.4,70.7,68.1,94,68,42,29.92,29.92,11,1,11,0.00
2013-8-28,99.9,86.9,75.0,72.3,69.1,64.8,85,59,33,29.92,29.92,9,1,9,0.00
2013-8-29,102.6,88.7,76.1,73.2,68.1,63.7,82,53,32,29.92,29.92,10,2,10,0.00
2013-8-30,104.2,89.6,76.6,76.9,70.5,63.9,89,57,31,29.92,29.92,11,2,11,0.00
2013-8-31,103.5,89.8,76.3,76.1,71.6,68.8,86,58,35,29.92,29.92,12,3,12,0.00
2013-9-1,104.2,90.6,79.3,74.5,71.0,65.9,78,55,34,29.92,29.92,13,3,13,0.00
2013-9-2,97.9,88.2,77.9,75.8,71.4,66.1,84,59,37,29.92,29.92,12,3,12,0.00
2013-9-3,103.5,86.7,75.6,74.6,71.0,68.4,86,62,34,29.92,29.92,14,2,14,0.00
2013-9-4,100.6,82.8,75.4,78.0,73.6,69.8,90,75,42,29.92,29.92,20,2,20,0.50
2013-9-5,99.1,86.3,74.3,76.6,72.9,66.8,95,68,37,29.92,29.92,16,2,16,0.00
2013-9-6,101.8,87.5,74.8,76.7,71.1,63.9,92,63,31,29.92,29.92,10,2,10,0.00
2013-9-7,101.1,85.7,73.6,77.0,71.9,65.8,91,66,35,29.92,29.92,22,2,22,0.00
2013-9-8,98.4,85.1,71.4,74.4,69.3,64.0,92,63,35,29.92,29.92,8,2,8,0.00
2013-9-9,98.8,85.1,72.0,74.6,68.0,61.6,89,60,31,29.92,29.92,12,2,12,0.00
2013-9-10,96.8,85.2,72.5,75.4,69.3,65.0,91,62,37,29.92,29.92,14,2,14,0.00
2013-9-11,98.1,85.2,74.7,74.3,70.2,67.9,85,63,41,29.92,29.92,11,1,11,0.00
2013-9-12,97.3,83.9,72.9,73.6,69.7,64.9,90,65,38,29.92,29.92,8,1,8,0.00
2013-9-13,100.2,84.0,71.8,71.3,68.4,65.1,85,62,33,29.92,29.92,11,2,11,0.00
2013-9-14,95.4,83.3,72.5,70.8,65.5,59.8,78,56,39,29.92,29.92,11,2,11,0.00
2013-9-15,98.2,84.5,70.7,69.9,64.3,58.3,66,52,34,29.92,29.92,8,2,8,0.00
2013-9-16,98.2,86.0,73.9,74.7,69.5,65.4,88,60,35,29.92,29.92,9,1,9,0.00
2013-9-17,84.7,84.4,83.5,69.2,68.6,68.0,61,59,58,29.92,29.92,2,0,2,0.00
2013-9-18,98.6,87.0,76.6,74.7,69.5,65.0,80,58,34,29.92,29.92,11,2,11,0.00
2013-9-19,95.9,84.5,75.7,75.4,72.8,69.2,88,70,45,29.92,29.92,18,2,18,0.00
2013-9-20,80.6,76.1,70.9,76.2,73.6,70.0,97,92,83,29.92,29.92,11,3,11,2.50
2013-9-21,83.5,74.2,68.2,70.2,65.2,55.8,97,75,54,29.92,29.92,16,4,16,0.02
2013-9-22,84.0,70.9,59.9,57.8,54.7,48.1,84,60,31,29.92,29.92,11,2,11,0.02
2013-9-23,88.2,74.8,60.8,68.9,60.9,55.3,84,64,44,29.92,29.92,8,1,8,0.00
2013-9-24,75.7,73.9,71.4,68.3,66.9,65.8,84,79,73,29.92,29.92,6,0,6,0.00
2013-9-25,92.7,80.4,62.6,64.1,58.2,50.5,89,51,25,29.92,29.92,13,1,13,0.01
2013-9-26,94.1,77.1,60.8,68.5,62.6,57.2,91,65,34,29.92,29.92,9,1,9,0.00
2013-9-27,92.1,78.9,65.1,73.5,66.9,62.8,94,69,43,29.92,29.92,13,2,13,0.00
2013-9-28,90.7,81.0,73.4,78.9,72.5,68.0,93,76,53,32.19,29.92,12,2,12,0.09
2013-9-29,81.7,77.3,73.6,76.9,74.8,72.6,98,92,83,29.92,29.92,11,1,11,1.67
2013-9-30,85.8,78.7,73.6,75.3,73.5,71.7,97,84,67,29.92,29.92,8,1,8,0.00
2013-10-1,88.9,79.0,73.6,76.1,73.7,70.8,96,84,62,29.92,29.92,14,2,14,0.00
2013-10-2,88.9,80.7,74.5,74.8,72.7,68.9,95,78,56,29.92,29.92,11,2,11,0.00
2013-10-3,90.1,81.1,75.7,76.2,73.6,71.4,92,79,57,29.92,29.92,11,2,11,0.00
2013-10-4,90.9,81.0,73.4,76.6,73.5,70.0,92,79,54,29.92,29.92,13,2,13,0.00
2013-10-5,90.5,79.0,63.5,77.5,71.4,54.5,94,78,55,29.92,29.92,14,3,14,0.05
2013-10-6,77.9,65.5,56.8,54.9,47.6,37.6,74,55,24,29.92,29.92,11,3,11,0.04
2013-10-7,79.0,64.2,51.3,53.8,46.2,36.8,86,58,23,29.92,29.92,10,1,10,0.00
2013-10-8,77.9,63.9,50.0,56.8,53.0,47.4,93,70,44,29.92,29.92,7,1,7,0.00
2013-10-9,81.5,66.5,52.5,60.4,56.5,50.7,95,73,44,29.92,29.92,7,1,7,0.00
2013-10-10,82.8,69.1,54.7,65.8,60.3,52.7,96,75,51,29.92,29.92,9,2,9,0.00
2013-10-11,86.7,75.1,63.3,71.4,67.2,61.3,97,78,55,29.92,29.92,11,3,11,0.00
2013-10-12,84.6,75.3,69.3,76.6,72.6,67.6,98,91,74,29.92,29.92,15,2,15,0.35
2013-10-13,76.1,71.6,68.4,71.3,69.5,68.0,99,93,83,29.92,29.92,8,1,8,0.00
2013-10-14,83.8,75.2,69.8,74.4,70.4,68.3,96,86,64,29.92,29.92,10,2,10,0.00
2013-10-15,87.3,76.9,68.7,74.5,71.8,67.7,97,85,59,29.92,29.92,14,3,14,1.02
2013-10-16,68.7,65.8,61.0,68.2,64.8,59.8,99,97,94,29.92,29.92,8,2,8,0.39
2013-10-17,72.0,62.8,55.2,59.8,55.0,48.4,97,78,46,29.92,29.92,10,2,10,0.01
2013-10-18,70.0,60.9,51.4,59.9,55.9,50.5,99,85,64,29.92,29.92,8,1,8,0.00
2013-10-19,65.8,58.4,49.1,58.7,49.5,40.2,96,75,39,29.92,29.92,16,3,16,0.20
2013-10-20,71.6,56.4,42.3,54.1,48.3,40.6,97,77,42,29.92,29.92,10,1,10,0.00
2013-10-21,78.6,63.9,51.3,67.9,58.9,49.4,97,85,63,29.92,29.92,10,1,10,0.00
2013-10-22,71.4,63.1,54.5,64.7,55.6,44.4,96,79,41,29.92,29.92,11,3,11,0.01
2013-10-23,79.0,63.1,49.8,58.8,52.4,47.9,95,72,34,29.92,29.92,6,1,7,0.01
2013-10-24,81.7,65.1,51.1,60.2,54.5,48.8,94,72,36,29.92,29.92,9,1,9,0.00
2013-10-25,68.0,59.2,51.4,57.1,49.6,44.3,87,71,51,29.92,29.92,10,3,10,0.00
2013-10-26,78.1,62.7,48.0,62.4,53.6,44.3,88,73,54,29.92,29.92,15,3,15,0.00
2013-10-27,73.0,65.1,57.9,64.5,61.1,8.2,99,88,12,29.92,29.92,13,2,13,0.54
2013-10-28,77.7,66.8,57.7,68.6,63.3,56.5,99,89,71,29.92,29.92,8,1,8,0.00
2013-10-29,83.3,72.8,66.9,71.7,67.8,65.3,99,85,61,29.92,29.92,18,3,18,0.00
2013-10-30,72.5,69.5,66.4,71.6,68.4,64.6,99,96,89,29.92,29.92,12,2,12,1.78
2013-10-31,75.6,69.5,55.6,73.9,65.3,48.6,99,88,42,29.92,29.92,12,3,12,0.51
2013-11-1,75.0,60.9,48.7,59.5,53.8,47.4,98,80,46,29.92,29.92,10,2,10,0.01
2013-11-2,68.5,59.1,48.7,58.2,44.7,29.0,94,64,23,29.92,29.92,18,3,18,0.34
2013-11-3,66.0,53.4,42.4,49.2,45.2,40.3,95,76,48,29.92,29.92,9,2,9,0.00
2013-11-4,60.6,54.2,51.3,54.4,49.5,46.8,89,84,80,29.92,29.92,5,1,5,0.00
2013-11-5,81.7,74.5,65.1,59.8,56.4,52.2,77,56,37,29.92,29.92,4,2,4,0.00
2013-11-6,71.1,58.2,47.5,69.0,54.7,42.7,95,88,78,29.92,29.92,13,4,13,0.18
2013-11-7,61.9,50.7,41.4,46.9,41.9,37.4,94,74,43,29.92,29.92,17,4,17,0.07
2013-11-8,63.3,52.7,43.0,50.2,46.6,41.5,98,81,52,29.92,29.92,7,0,7,0.00
2013-11-9,58.5,54.3,52.2,54.8,51.1,48.1,93,89,79,29.92,29.92,4,0,4,0.08
2013-11-10,68.9,56.7,49.5,52.8,50.1,48.3,98,81,52,29.92,29.92,10,2,10,0.00
2013-11-11,70.3,56.6,44.1,55.6,50.6,43.5,99,82,52,29.92,29.92,7,1,7,0.00
2013-11-12,62.4,50.9,39.2,56.5,46.2,1.7,99,84,66,29.92,29.92,20,4,20,0.04
2013-11-13,51.4,41.9,37.6,34.4,30.7,23.8,78,67,36,29.92,29.92,11,3,11,0.00
2013-11-14,59.9,48.0,41.2,43.1,36.4,32.4,83,66,37,31.24,29.92,9,1,9,0.00
2013-11-15,73.0,59.5,47.5,63.9,55.3,42.3,96,86,70,29.92,29.92,11,2,11,0.05
2013-11-16,76.5,66.6,55.2,72.3,65.1,54.1,99,95,86,29.92,29.92,15,4,15,0.04
2013-11-17,83.1,74.4,65.5,74.4,70.7,64.6,98,89,66,29.92,29.92,18,4,18,0.01
2013-11-18,74.7,66.0,58.6,65.2,46.7,35.7,99,54,26,29.92,29.92,11,3,11,0.00
2013-11-19,66.0,57.3,49.6,43.5,38.0,30.8,66,50,28,29.92,29.92,11,2,11,0.00
2013-11-20,69.6,57.0,45.5,49.9,42.5,35.5,71,59,39,29.92,29.92,11,1,11,0.00
2013-11-21,73.8,67.3,58.3,69.1,62.8,47.0,94,86,64,29.92,29.92,11,2,11,0.00
2013-11-22,71.2,54.7,47.5,69.5,54.0,47.2,99,98,93,29.92,29.92,13,3,13,0.84
2013-11-23,47.5,47.5,47.5,47.2,47.2,47.2,99,99,99,29.92,29.92,17,6,17,0.43
2013-11-24,47.5,47.5,47.5,47.2,47.2,47.2,99,99,99,29.92,29.92,17,6,17,0.31
2013-11-25,47.5,47.5,47.5,47.2,47.2,47.2,99,99,99,29.92,29.92,16,3,16,0.86
2013-11-26,47.5,47.5,47.5,47.2,47.2,47.2,99,99,99,29.92,29.92,14,2,14,0.53
2013-11-27,47.5,47.5,47.5,47.2,47.2,47.2,99,99,99,32.19,29.92,12,2,12,0.01
2013-11-28,47.5,47.5,47.5,47.2,47.2,47.2,99,99,99,29.92,29.92,11,1,11,0.00
2013-11-29,47.5,47.5,47.5,47.2,47.2,47.2,99,99,99,29.92,29.92,8,1,8,0.00
2013-11-30,59.4,51.8,32.0,49.9,47.3,-28.3,99,87,6,33.70,29.92,46,1,46,1.51
2013-12-1,66.0,59.0,52.7,57.7,53.0,47.9,86,81,73,29.92,29.92,11,3,11,0.00
2013-12-2,70.9,61.0,52.7,60.4,56.5,49.9,94,86,66,29.92,29.92,10,2,10,0.00
2013-12-3,80.1,64.9,52.3,62.7,57.3,49.5,95,78,48,29.92,29.92,17,3,17,0.00
2013-12-4,79.5,69.9,32.0,67.9,64.0,-25.4,93,83,7,33.70,29.92,20,6,20,2.79
2013-12-5,70.7,51.3,37.2,67.8,47.3,34.6,97,86,70,29.92,29.92,14,4,14,0.08
2013-12-6,39.9,37.1,32.2,38.8,35.6,29.6,98,94,88,29.92,29.92,15,5,15,0.27
2013-12-7,34.5,33.0,32.0,30.9,28.9,27.5,92,85,77,29.92,29.92,15,5,15,0.05
2013-12-8,40.8,37.0,32.4,39.2,34.2,28.7,96,89,82,29.92,29.92,4,1,4,0.02
2013-12-9,40.3,38.5,36.5,39.5,37.3,34.1,97,95,91,29.92,29.92,14,4,14,0.22
2013-12-10,43.9,35.5,28.0,34.1,28.1,22.4,91,75,55,29.92,29.92,14,3,14,0.04
2013-12-11,53.6,40.3,28.2,36.9,31.8,23.5,88,73,48,29.92,29.92,10,2,10,0.00
2013-12-12,52.2,41.2,32.5,34.3,30.1,26.3,82,66,39,29.92,29.92,12,3,12,0.00
2013-12-13,47.7,42.3,36.1,46.6,37.6,28.7,96,84,67,29.92,29.92,8,1,8,0.37
2013-12-14,51.4,46.9,36.9,50.3,42.9,29.0,96,86,72,29.92,29.92,16,4,17,0.28
2013-12-15,54.0,40.4,30.0,35.8,30.5,26.0,85,70,42,29.92,29.92,10,2,10,0.01
2013-12-16,63.3,44.7,30.0,41.6,34.7,25.7,87,71,38,29.92,29.92,11,2,11,0.00
2013-12-17,68.5,48.3,32.7,46.9,38.5,28.4,88,72,38,29.92,29.92,9,1,9,0.00
2013-12-18,69.3,51.7,35.6,48.3,41.9,31.5,92,72,39,29.92,29.92,14,3,14,0.00
2013-12-19,72.9,61.6,49.6,63.8,56.2,46.6,93,83,67,29.92,29.92,26,6,26,0.00
2013-12-20,76.3,71.4,67.8,69.0,66.7,63.7,93,85,75,29.92,29.92,19,7,19,0.02
2013-12-21,71.2,64.9,56.5,69.1,63.0,54.6,96,93,86,29.92,29.92,19,6,19,0.96
2013-12-22,56.5,47.4,33.4,55.4,43.2,28.0,96,85,71,29.92,29.92,14,3,14,0.21
2013-12-23,49.6,37.8,29.8,32.3,28.4,25.0,84,70,44,29.92,29.92,14,4,14,0.00
2013-12-24,53.6,39.2,27.7,36.6,30.5,22.6,87,73,44,29.92,29.92,9,1,9,0.00
2013-12-25,59.0,44.8,28.6,41.4,33.5,25.2,89,67,34,29.92,29.92,7,1,7,0.00
2013-12-26,59.2,48.4,38.7,42.5,39.4,35.1,89,72,49,29.92,29.92,8,1,8,0.00
2013-12-27,56.5,46.1,37.6,41.2,37.6,35.0,94,74,46,29.92,29.92,9,1,9,0.00
2013-12-28,57.6,48.0,40.1,41.0,37.0,28.2,89,68,35,29.92,29.92,4,0,4,0.00
2013-12-29,59.7,47.9,35.2,48.8,40.5,30.9,89,76,58,29.92,29.92,11,1,11,0.02
2013-12-30,43.7,39.1,35.8,34.6,30.4,27.5,75,71,66,29.92,29.92,10,3,10,0.00
2013-12-31,47.7,39.5,34.2,34.5,31.8,27.7,86,74,58,29.92,29.92,6,1,6,0.00
2014-1-1,62.4,48.6,33.8,54.2,43.3,29.2,93,82,70,29.92,29.92,16,3,16,0.00
2014-1-2,58.3,41.5,31.5,54.9,26.3,18.2,89,56,33,29.92,29.92,17,5,17,0.87